Weather History for Kirksville, MO

Change the Weather History Date:

Friday, July 5, 2013

  Actual Average Record
Temperature  
Mean Temperature 72 °F 74 °F  
Max Temperature 86 °F 85 °F 106 °F (1934)
Min Temperature 57 °F 64 °F 47 °F (1972)
Degree Days  
Heating Degree Days 0 0  
Month to date heating degree days 0 0  
Since 1 June heating degree days 36 16  
Since 1 July heating degree days 0 0  
Cooling Degree Days 7 9  
Month to date cooling degree days 23 45  
Year to date cooling degree days 298 299  
Since 1 June cooling degree days 230 237  
Growing Degree Days 20 (Base 50)    
Moisture  
Dew Point 61 °F    
Average Humidity 69    
Maximum Humidity 93    
Minimum Humidity 44    
Precipitation  
Precipitation 0.00 in 0.12 in 1.34 in (2014)
Month to date precipitation 0.00 0.59  
Year to date precipitation 27.91 19.52  
Sea Level Pressure  
Sea Level Pressure 30.01 in    
Wind  
Wind Speed 6 mph (SSE)    
Max Wind Speed 15 mph    
Max Gust Speed 17 mph    
Visibility 10 miles    
Events      
T = Trace of Precipitation, MM = Missing Value Source: NWS Daily Summary

Daily Weather History Graph

Daily Weather History Graph

Search for Another Location

Airport:

Trip Planner

Search our weather history database for the weather conditions in past years. The results will help you decide how hot, cold, wet, or windy it might be!

Date:

Astronomy

Jul. 05, 2013 Rise Set
Actual Time 5:47 AM CDT 8:42 PM CDT
Civil Twilight 5:14 AM CDT 9:14 PM CDT
Nautical Twilight 4:33 AM CDT 9:55 PM CDT
Astronomical Twilight 3:45 AM CDT 10:43 PM CDT
Moon 3:46 AM CDT (7/5) 6:37 PM CDT (7/5)
Length of Visible Light 16h 00m
Length of Day
14h 55m
Waning Crescent, 6% of the Moon is Illuminated
Jul 5
Waning Crescent
Jul 8
New
Jul 15
First Quarter
Jul 22
Full
Jul 29
Last Quarter

Hourly Weather History & Observations

Time (CDT) Temp. Heat Index Dew Point Humidity Pressure Visibility Wind Dir Wind Speed Gust Speed Precip Events Conditions
12:55 AM 64.0 °F - 55.9 °F 75% 30.02 in 10.0 mi South 5.8 mph - N/A   Clear
1:55 AM 64.0 °F - 55.9 °F 75% 30.01 in 10.0 mi SSW 4.6 mph - N/A   Clear
2:55 AM 60.1 °F - 55.9 °F 86% 30.01 in 10.0 mi Calm Calm - N/A   Clear
3:55 AM 57.0 °F - 55.9 °F 96% 30.01 in 10.0 mi Calm Calm - N/A   Clear
4:55 AM 61.0 °F - 57.0 °F 87% 30.03 in 10.0 mi SE 4.6 mph - N/A   Clear
5:55 AM 57.0 °F - 55.9 °F 96% 30.04 in 7.0 mi SSE 3.5 mph - N/A   Clear
6:55 AM 64.0 °F - 60.1 °F 87% 30.04 in 7.0 mi SSE 3.5 mph - N/A   Clear
7:55 AM 69.1 °F - 62.1 °F 78% 30.05 in 8.0 mi South 5.8 mph - N/A   Clear
8:55 AM 73.0 °F - 63.0 °F 71% 30.06 in 10.0 mi South 8.1 mph - N/A   Clear
9:55 AM 77.0 °F - 64.0 °F 64% 30.06 in 10.0 mi SSE 8.1 mph - N/A   Unknown
10:55 AM 80.1 °F 81.5 °F 63.0 °F 56% 30.05 in 10.0 mi SSW 9.2 mph - N/A   Clear
11:55 AM 82.9 °F 84.0 °F 63.0 °F 51% 30.04 in 10.0 mi South 9.2 mph - N/A   Clear
12:55 PM 84.0 °F 84.9 °F 63.0 °F 49% 30.03 in 10.0 mi South 9.2 mph - N/A   Clear
1:55 PM 84.0 °F 84.9 °F 63.0 °F 49% 30.02 in 10.0 mi SSE 9.2 mph - N/A   Partly Cloudy
2:55 PM 84.9 °F 85.4 °F 62.1 °F 46% 30.01 in 10.0 mi South 8.1 mph - N/A   Clear
3:55 PM 84.9 °F 85.0 °F 61.0 °F 44% 30.00 in 10.0 mi South 9.2 mph - N/A   Clear
4:55 PM 84.9 °F 85.0 °F 61.0 °F 44% 29.99 in 10.0 mi SSE 9.2 mph - N/A   Clear
5:55 PM 84.0 °F 84.4 °F 61.0 °F 46% 29.98 in 10.0 mi South 8.1 mph - N/A   Clear
6:55 PM 82.0 °F 83.0 °F 62.1 °F 51% 29.97 in 10.0 mi South 6.9 mph - N/A   Clear
7:55 PM 77.0 °F - 64.0 °F 64% 29.97 in 10.0 mi SSE 5.8 mph - N/A   Clear
8:55 PM 73.0 °F - 61.0 °F 66% 29.97 in 10.0 mi SE 5.8 mph - N/A   Clear
9:55 PM 72.0 °F - 62.1 °F 71% 29.99 in 10.0 mi SSE 8.1 mph - N/A   Clear
10:55 PM 70.0 °F - 62.1 °F 76% 30.00 in 10.0 mi SE 5.8 mph - N/A   Clear
11:55 PM 69.1 °F - 61.0 °F 75% 30.01 in 10.0 mi SSE 6.9 mph - N/A   Clear